Tracking 28341 objects as of 6-Dec-2023
HD Live streaming from Space Station
objects crossing your sky now

STARLINK-4321

Track STARLINK-4321 now!
10-day predictions
STARLINK-4321 is classified as:


NORAD ID: 53082
Int'l Code: 2022-077AR
Perigee: 568.3 km
Apogee: 572.0 km
Inclination: 97.7 °
Period: 95.9 minutes
Semi major axis: 6941 km
RCS: Unknown
Launch date: July 11, 2022
Source: United States (US)
Launch site: AIR FORCE WESTERN TEST RANGE (AFWTR)
Your satellite tracking list
Your tracking list is empty




NASA's NSSDC Master Catalog

Two Line Element Set (TLE):
1 53082U 22077AR  23339.49758073  .00004017  00000-0  31716-3 0  9992
2 53082  97.6525 158.1236 0002719  69.1067 291.0448 15.01256200 77114
Source of the keplerian elements: AFSPC